Location: Unspecified
(42.0334°N, 93.6656°W)
Time: 08:03:01
(UTC-05:00)

Amateur Radio Satellites - All Passes

Search period start: 20 October 2014 07:33
Search period end: 21 October 2014 07:33
Location: Unspecified, 42.0334°N, 93.6656°W

Satellite Date Start Highest point End Downlink Frequencies (MHz)
Time Altitude Azimuth
Uosat F 20 Oct 07:38:42 07:40:10 11° 303° (WNW) 07:41:38 435.120 FM
STRAND 1 20 Oct 08:02:30 08:07:06 33° 263° (W) 08:11:44 ?
Saudisat 1A 20 Oct 08:30:32 08:33:45 20° 112° (ESE) 08:36:59 436.775 MHz
RS-15 20 Oct 08:36:17 08:47:30 85° 57° (ENE) 08:59:12 29.354 - 29.394 USB, Beacon 29.352 USB
JAS-2 20 Oct 08:46:31 08:51:56 22° 302° (WNW) 08:57:31 435.800 - 435.900 CW/SSB, 435.910 FM
SO-67 20 Oct 09:04:03 09:07:00 27° 289° (WNW) 09:09:56 435.3500 MHz FM
HO-68 20 Oct 09:54:15 10:01:12 49° 100° (E) 10:08:06 435.675 MHz FM
Saudisat 1A 20 Oct 10:08:48 10:13:01 44° 309° (NW) 10:17:15 436.775 MHz
UKube-1 20 Oct 10:09:39 10:13:07 22° 95° (E) 10:16:32 145.840 MHz, 145.915 MHz
FUNcube-1 20 Oct 10:40:54 10:43:55 19° 92° (E) 10:46:53 145.950 - 145.970 MHz USB
RS-15 20 Oct 10:50:05 10:58:35 26° 258° (WSW) 11:07:22 29.354 - 29.394 USB, Beacon 29.352 USB
Oscar 11 20 Oct 10:55:13 10:59:31 66° 101° (E) 11:03:47 145.825 FM, Beacon 2401.500 USB
MaSat-1 20 Oct 11:05:47 11:08:29 59° 246° (WSW) 11:10:55 437.345 MHz
ZACube-1 20 Oct 11:30:12 11:34:31 67° 101° (E) 11:38:42 437.345 MHz
HO-68 20 Oct 11:42:20 11:48:39 35° 298° (WNW) 11:54:57 435.675 MHz FM
UKube-1 20 Oct 11:45:25 11:49:21 33° 291° (WNW) 11:53:16 145.840 MHz, 145.915 MHz
PANSAT 20 Oct 12:11:03 12:11:57 11° 181° (S) 12:12:50 not established
FUNcube-1 20 Oct 12:16:28 12:20:28 38° 289° (WNW) 12:24:22 145.950 - 145.970 MHz USB
KITSAT 1 20 Oct 12:31:26 12:37:53 27° 105° (ESE) 12:44:21 435.175 FM
Oscar 11 20 Oct 12:33:21 12:35:09 12° 298° (WNW) 12:36:57 145.825 FM, Beacon 2401.500 USB
Oscar 19 20 Oct 12:34:32 12:37:36 16° 61° (ENE) 12:40:40 437.125 CW, 437.150 USB
PCSat 20 Oct 12:42:07 12:44:48 14° 37° (NE) 12:47:29 145.825 MHz
ZACube-1 20 Oct 13:08:38 13:10:19 12° 299° (WNW) 13:12:00 437.345 MHz
Oscar 16 20 Oct 13:17:20 13:22:06 39° 69° (ENE) 13:26:52 437.025 USB, Beacon 2401.1428
Gurwin Techsat 1B 20 Oct 13:27:32 13:28:56 11° 56° (ENE) 13:30:20 435.225 FM
Uribyol 2 20 Oct 13:28:53 13:32:54 23° 63° (ENE) 13:36:55 436.500 FM
ITAMSAT 1 20 Oct 13:33:34 13:37:38 24° 64° (ENE) 13:41:43 435.822 SSB
TMSAT-1 20 Oct 13:42:00 13:43:24 11° 57° (ENE) 13:44:49 436.925 FM
JAS-1B 20 Oct 13:46:23 13:52:23 57° 71° (ENE) 13:57:57 435.800 - 435.900 CW/SSB
ISS 20 Oct 13:50:24 13:51:34 12° 129° (SE) 13:52:45 145.800 FM
AO-Echo 20 Oct 13:52:08 13:56:37 40° 69° (ENE) 14:01:15 ?
Sapphire 20 Oct 14:00:51 14:06:00 41° 53° (NE) 14:11:07 437.095 MHz 1200 baud AX-25 AFSK
Oscar 19 20 Oct 14:11:13 14:16:22 70° 258° (WSW) 14:21:31 437.125 CW, 437.150 USB
AO-27 20 Oct 14:16:35 14:21:40 58° 72° (ENE) 14:26:48 436.795 MHz FM
PCSat 20 Oct 14:23:52 14:29:17 67° 58° (ENE) 14:34:40 145.825 MHz
KITSAT 1 20 Oct 14:24:34 14:32:37 69° 304° (NW) 14:40:42 435.175 FM
SO-50 20 Oct 14:41:01 14:45:28 73° 121° (ESE) 14:50:05 436.795 FM
AO-7 20 Oct 14:42:52 14:48:42 22° 51° (NE) 14:54:31 29.400 - 29.500 MHz
Oscar 16 20 Oct 14:57:15 15:01:32 26° 265° (W) 15:05:50 437.025 USB, Beacon 2401.1428
Gurwin Techsat 1B 20 Oct 15:02:41 15:07:59 77° 74° (ENE) 15:13:19 435.225 FM
Uribyol 2 20 Oct 15:07:01 15:12:02 48° 261° (W) 15:17:06 436.500 FM
ITAMSAT 1 20 Oct 15:11:50 15:16:49 46° 261° (W) 15:21:51 435.822 SSB
TMSAT-1 20 Oct 15:17:08 15:22:25 78° 74° (ENE) 15:27:45 436.925 FM
Oscar 10/S400 20 Oct 15:20:34 15:37:57 44° 157° (SSE) 16:08:07 145.825 - 145.975 CW/USB, Beacon 145.810 USB
ISS 20 Oct 15:24:28 15:27:48 86° 325° (NW) 15:31:10 145.800 FM
AO-Echo 20 Oct 15:31:43 15:35:32 23° 267° (W) 15:39:27 ?
Uosat F 20 Oct 15:34:08 15:37:30 18° 62° (ENE) 15:40:53 435.120 FM
JAS-1B 20 Oct 15:39:13 15:43:27 19° 267° (W) 15:47:28 435.800 - 435.900 CW/SSB
Sapphire 20 Oct 15:44:36 15:49:15 30° 251° (WSW) 15:53:53 437.095 MHz 1200 baud AX-25 AFSK
AO-27 20 Oct 15:58:06 16:01:33 18° 268° (W) 16:05:02 436.795 MHz FM
PCSat 20 Oct 16:08:39 16:12:07 17° 255° (WSW) 16:15:33 145.825 MHz
SO-50 20 Oct 16:23:26 16:26:34 18° 321° (NW) 16:29:45 436.795 FM
KITSAT 1 20 Oct 16:23:45 16:29:37 21° 329° (NNW) 16:35:31 435.175 FM
UOSAT-12 20 Oct 16:30:45 16:35:23 83° 122° (ESE) 16:40:07 437.025 FM, 437.400 FM
AO-7 20 Oct 16:32:07 16:40:24 88° 71° (ENE) 16:48:44 29.400 - 29.500 MHz
Gurwin Techsat 1B 20 Oct 16:46:04 16:48:32 13° 271° (W) 16:51:01 435.225 FM
Saudisat 1A 20 Oct 16:55:57 16:59:26 22° 44° (NE) 17:02:55 436.775 MHz
TMSAT-1 20 Oct 17:00:29 17:02:55 13° 271° (W) 17:05:22 436.925 FM
ISS 20 Oct 17:02:15 17:04:54 21° 344° (NNW) 17:07:32 145.800 FM
Uosat F 20 Oct 17:10:53 17:15:49 58° 259° (W) 17:20:48 435.120 FM
JAS-2 20 Oct 17:13:26 17:18:43 38° 65° (ENE) 17:24:39 435.800 - 435.900 CW/SSB, 435.910 FM
UOSAT-12 20 Oct 18:13:06 18:16:09 17° 322° (NW) 18:19:14 437.025 FM, 437.400 FM
Hamsat 20 Oct 18:16:01 18:20:15 89° 74° (ENE) 18:24:29 145.90 MHz
KITSAT 1 20 Oct 18:26:15 18:28:53 12° 359° (N) 18:31:31 435.175 FM
AO-7 20 Oct 18:28:44 18:34:10 19° 269° (W) 18:39:38 29.400 - 29.500 MHz
Saudisat 1A 20 Oct 18:34:59 18:39:15 49° 242° (WSW) 18:43:30 436.775 MHz
OPAL 20 Oct 18:35:12 18:40:13 77° 105° (ESE) 18:45:09 ?
ISS 20 Oct 18:40:19 18:42:30 16° 4° (N) 18:44:41 145.800 FM
JAS-2 20 Oct 18:58:46 19:03:52 33° 267° (W) 19:09:34 435.800 - 435.900 CW/SSB, 435.910 FM
SO-67 20 Oct 19:36:16 19:39:42 83° 258° (WSW) 19:43:10 435.3500 MHz FM
STRAND 1 20 Oct 20:11:58 20:17:09 81° 104° (ESE) 20:22:18 ?
OPAL 20 Oct 20:15:52 20:18:27 14° 303° (WNW) 20:21:00 ?
ISS 20 Oct 20:16:53 20:19:58 32° 24° (NNE) 20:23:01 145.800 FM
KITSAT 1 20 Oct 20:22:34 20:28:15 20° 30° (NNE) 20:33:54 435.175 FM
HO-68 20 Oct 20:23:21 20:29:50 39° 63° (ENE) 20:36:21 435.675 MHz FM
AO-40 20 Oct 20:39:54 23:08:26 32° 204° (SSW) 03:49:43 Beacon 2401.320
UKube-1 20 Oct 21:05:47 21:09:06 22° 66° (ENE) 21:12:26 145.840 MHz, 145.915 MHz
SO-50 20 Oct 21:32:59 21:35:33 14° 36° (NE) 21:38:08 436.795 FM
FUNcube-1 20 Oct 21:37:44 21:40:54 19° 65° (ENE) 21:44:03 145.950 - 145.970 MHz USB
Oscar 11 20 Oct 21:50:26 21:54:39 53° 73° (ENE) 21:58:53 145.825 FM, Beacon 2401.500 USB
STRAND 1 20 Oct 21:53:03 21:55:39 14° 301° (WNW) 21:58:14 ?
ISS 20 Oct 21:53:34 21:56:42 38° 222° (SW) 21:59:48 145.800 FM
HO-68 20 Oct 22:10:44 22:17:26 43° 261° (W) 22:24:13 435.675 MHz FM
KITSAT 1 20 Oct 22:17:22 22:25:24 64° 54° (NE) 22:33:23 435.175 FM
ZACube-1 20 Oct 22:26:29 22:31:00 57° 74° (ENE) 22:35:30 437.345 MHz
UKube-1 20 Oct 22:41:05 22:45:04 36° 262° (W) 22:49:06 145.840 MHz, 145.915 MHz
RS-15 20 Oct 23:00:11 23:10:42 53° 112° (ESE) 23:21:06 29.354 - 29.394 USB, Beacon 29.352 USB
SO-50 20 Oct 23:12:06 23:16:57 73° 55° (NE) 23:21:50 436.795 FM
FUNcube-1 20 Oct 23:12:29 23:16:55 47° 261° (W) 23:21:21 145.950 - 145.970 MHz USB
UOSAT-12 20 Oct 23:21:17 23:23:54 15° 36° (NE) 23:26:30 437.025 FM, 437.400 FM
Oscar 11 20 Oct 23:28:55 23:31:09 14° 269° (W) 23:33:23 145.825 FM, Beacon 2401.500 USB
ZACube-1 21 Oct 00:05:11 00:07:43 15° 269° (W) 00:10:16 437.345 MHz
KITSAT 1 21 Oct 00:13:32 00:20:15 30° 254° (WSW) 00:26:57 435.175 FM
MaSat-1 21 Oct 00:43:29 00:47:20 32° 110° (ESE) 00:50:53 437.345 MHz
SO-50 21 Oct 00:54:22 00:56:57 14° 252° (WSW) 00:59:32 436.795 FM
UOSAT-12 21 Oct 01:00:06 01:04:51 79° 56° (NE) 01:09:29 437.025 FM, 437.400 FM
RS-15 21 Oct 01:12:39 01:23:09 49° 316° (NW) 01:33:44 29.354 - 29.394 USB, Beacon 29.352 USB
JAS-1B 21 Oct 01:29:59 01:33:36 15° 91° (E) 01:37:30 435.800 - 435.900 CW/SSB
Oscar 16 21 Oct 01:30:25 01:32:38 13° 89° (E) 01:34:50 437.025 USB, Beacon 2401.1428
AO-Echo 21 Oct 02:00:15 02:02:50 14° 89° (E) 02:05:26 ?
MaSat-1 21 Oct 02:19:44 02:23:07 23° 304° (WNW) 02:26:16 437.345 MHz
Oscar 19 21 Oct 02:22:35 02:27:24 40° 98° (E) 02:32:10 437.125 CW, 437.150 USB
AO-27 21 Oct 02:30:08 02:33:55 20° 93° (E) 02:37:41 436.795 MHz FM
UOSAT-12 21 Oct 02:42:28 02:44:18 12° 253° (WSW) 02:46:08 437.025 FM, 437.400 FM
Oscar 16 21 Oct 03:07:25 03:12:33 76° 286° (WNW) 03:17:39 437.025 USB, Beacon 2401.1428
JAS-1B 21 Oct 03:18:18 03:24:44 89° 285° (WNW) 03:32:24 435.800 - 435.900 CW/SSB
Gurwin Techsat 1B 21 Oct 03:18:57 03:23:35 30° 95° (E) 03:28:12 435.225 FM
Uribyol 2 21 Oct 03:19:09 03:24:19 60° 101° (E) 03:29:26 436.500 FM
ITAMSAT 1 21 Oct 03:24:02 03:29:14 62° 102° (ESE) 03:34:23 435.822 SSB
RS-15 21 Oct 03:30:55 03:39:05 23° 348° (NNW) 03:47:22 29.354 - 29.394 USB, Beacon 29.352 USB
TMSAT-1 21 Oct 03:33:01 03:37:39 30° 95° (E) 03:42:15 436.925 FM
AO-Echo 21 Oct 03:36:50 03:42:08 77° 285° (WNW) 03:47:27 ?
Oscar 19 21 Oct 04:02:22 04:06:31 26° 295° (WNW) 04:10:39 437.125 CW, 437.150 USB
AO-27 21 Oct 04:08:39 04:13:43 52° 289° (WNW) 04:18:46 436.795 MHz FM
OPAL 21 Oct 04:13:34 04:17:13 20° 60° (ENE) 04:20:51 ?
AO-7 21 Oct 04:33:55 04:40:53 29° 95° (E) 04:47:48 29.400 - 29.500 MHz
Sapphire 21 Oct 04:43:26 04:48:13 33° 110° (ESE) 04:53:02 437.095 MHz 1200 baud AX-25 AFSK
Oscar 16 21 Oct 04:50:18 04:51:00 10° 304° (WNW) 04:51:42 437.025 USB, Beacon 2401.1428
Gurwin Techsat 1B 21 Oct 04:58:45 05:03:34 36° 292° (WNW) 05:08:22 435.225 FM
Uribyol 2 21 Oct 04:59:45 05:03:18 19° 298° (WNW) 05:06:51 436.500 FM
ITAMSAT 1 21 Oct 05:04:45 05:08:13 18° 299° (WNW) 05:11:41 435.822 SSB
PCSat 21 Oct 05:05:51 05:11:07 57° 115° (ESE) 05:16:26 145.825 MHz
JAS-1B 21 Oct 05:11:03 05:14:46 16° 301° (WNW) 05:18:47 435.800 - 435.900 CW/SSB
TMSAT-1 21 Oct 05:12:47 05:17:35 36° 292° (WNW) 05:22:22 436.925 FM
Uosat F 21 Oct 05:18:12 05:23:00 42° 99° (E) 05:27:45 435.120 FM
AO-Echo 21 Oct 05:18:33 05:20:01 11° 303° (WNW) 05:21:28 ?
RS-15 21 Oct 05:47:31 05:56:34 28° 24° (NNE) 06:05:49 29.354 - 29.394 USB, Beacon 29.352 USB
OPAL 21 Oct 05:50:36 05:55:40 57° 257° (WSW) 06:00:44 ?
STRAND 1 21 Oct 05:51:45 05:54:50 16° 60° (ENE) 05:57:56 ?
Hamsat 21 Oct 06:02:33 06:04:59 15° 91° (E) 06:07:24 145.90 MHz
JAS-2 21 Oct 06:05:33 06:12:43 40° 96° (E) 06:19:57 435.800 - 435.900 CW/SSB, 435.910 FM
AO-7 21 Oct 06:25:58 06:34:09 65° 293° (WNW) 06:42:20 29.400 - 29.500 MHz
Sapphire 21 Oct 06:26:34 06:31:33 37° 308° (NW) 06:36:36 437.095 MHz 1200 baud AX-25 AFSK
PCSat 21 Oct 06:50:30 06:54:54 25° 314° (NW) 06:59:19 145.825 MHz
Uosat F 21 Oct 06:57:31 07:01:32 24° 296° (WNW) 07:05:32 435.120 FM
